K7TSD Weather Reports


time (UTC)temp
C
wind
direction
speed
KPH
gust
KPH
rain 1hr
cm
rain 24hr
cm
rain mn
cm
humidity
%
barometer
mb
20260505152940 2 346 12.9 22.5 0.00 0.00 0.00 57 1013.2
20260505152437 2 330 19.3 25.7 0.00 0.00 0.00 57 1013.2
20260505151938 2 346 22.5 25.7 0.00 0.00 0.00 57 1013.2
20260505151433 2 354 14.5 20.9 0.00 0.00 0.00 57 1012.9
20260505150931 2 332 19.3 22.5 0.00 0.00 0.00 56 1012.9
20260505150428 2 352 24.1 33.8 0.00 0.00 0.00 55 1013.1
20260505140352 2 341 14.5 20.9 0.00 0.00 0.00 58 1013.0
20260505124903 0 342 8.0 12.9 0.00 0.00 0.00 76 1012.5
20260505124400 0 342 8.0 12.9 0.00 0.00 0.00 76 1012.5
20260505123856 0 342 8.0 12.9 0.00 0.00 0.00 76 1012.5
20260505123353 0 246 9.7 14.5 0.00 0.00 0.00 77 1012.3
20260505122849 0 325 12.9 16.1 0.00 0.00 0.00 78 1012.4
20260505122346 0 311 1.6 3.2 0.00 0.00 0.00 78 1012.4
20260505121843 0 302 1.6 4.8 0.00 0.00 0.00 80 1012.4
20260505121340 0 324 12.9 17.7 0.00 0.00 0.00 79 1012.4
20260505120836 0 327 6.4 9.7 0.00 0.00 0.00 80 1012.5
20260505120332 0 305 17.7 22.5 0.00 0.00 0.00 80 1012.4
20260505115606 0 306 11.3 17.7 0.00 0.00 0.00 81 1012.4
20260505115103 0 306 11.3 17.7 0.00 0.00 0.00 81 1012.4
20260505114600 0 332 9.7 14.5 0.00 0.00 0.00 81 1012.4
20260505114056 -1 338 8.0 11.3 0.00 0.00 0.00 83 1012.2
20260505113553 -1 335 1.6 4.8 0.00 0.00 0.00 83 1012.3
20260505113050 -1 19 1.6 4.8 0.00 0.00 0.00 82 1012.1
20260505112546 -1 359 0.0 1.6 0.00 0.00 0.00 83 1012.4
20260505112045 -1 18 1.6 3.2 0.00 0.00 0.00 83 1012.4
20260505111544 -1 7 4.8 9.7 0.00 0.00 0.00 83 1012.5
20260505111040 -1 11 1.6 4.8 0.00 0.00 0.00 83 1012.7
20260505110537 -1 343 3.2 9.7 0.00 0.00 0.00 82 1012.4
20260505102009 0 337 0.0 1.6 0.00 0.00 0.00 78 1012.8
20260505101507 0 349 9.7 20.9 0.00 0.00 0.00 78 1012.5
20260505101003 0 346 1.6 3.2 0.00 0.00 0.00 78 1012.4
20260505100501 0 264 0.0 0.0 0.00 0.00 0.00 78 1012.5
20260505095957 0 349 1.6 3.2 0.00 0.00 0.00 78 1012.3
20260505095453 0 344 0.0 3.2 0.00 0.00 0.00 78 1012.1
20260505094949 0 306 11.3 14.5 0.00 0.00 0.00 77 1012.2
20260505094447 1 0 3.2 8.0 0.00 0.00 0.00 76 1012.0
20260505093943 1 340 11.3 14.5 0.00 0.00 0.00 75 1011.8
20260505093440 1 358 17.7 22.5 0.00 0.00 0.00 72 1011.8
20260505092937 2 348 4.8 8.0 0.00 0.00 0.00 70 1011.8
20260505092434 2 337 11.3 12.9 0.00 0.00 0.00 67 1011.7
20260505091932 2 333 4.8 11.3 0.00 0.00 0.00 65 1012.0
20260505091429 2 356 14.5 17.7 0.00 0.00 0.00 63 1011.5
20260505090927 3 333 4.8 8.0 0.00 0.00 0.00 62 1011.8
20260505090425 3 333 11.3 14.5 0.00 0.00 0.00 61 1011.7
20260505085922 3 343 9.7 12.9 0.00 0.00 0.00 57 1011.7
20260505085420 4 340 8.0 11.3 0.00 0.00 0.00 56 1011.7
20260505084918 3 348 25.7 33.8 0.00 0.00 0.00 55 1011.5
20260505084416 4 292 4.8 8.0 0.00 0.00 0.00 55 1011.5
20260505083914 3 342 6.4 9.7 0.00 0.00 0.00 57 1011.5
20260505083411 3 340 16.1 17.7 0.00 0.00 0.00 58 1011.7
20260505082907 3 326 16.1 20.9 0.00 0.00 0.00 58 1011.6
20260505082403 3 318 14.5 17.7 0.00 0.00 0.00 59 1012.0
20260505081900 3 338 16.1 20.9 0.00 0.00 0.00 60 1011.6
20260505081356 3 308 17.7 22.5 0.00 0.00 0.00 60 1011.6
20260505080853 3 337 11.3 16.1 0.00 0.00 0.00 61 1011.7
20260505080349 3 338 11.3 16.1 0.00 0.00 0.00 62 1011.7
20260505075845 3 346 11.3 20.9 0.00 0.00 0.00 62 1012.1
20260505075342 3 311 16.1 20.9 0.00 0.00 0.00 62 1011.8
20260505074839 3 333 14.5 17.7 0.00 0.00 0.00 62 1012.0
20260505074336 3 317 6.4 9.7 0.00 0.00 0.00 63 1011.8
20260505073834 3 345 11.3 14.5 0.00 0.00 0.00 64 1012.0
20260505073332 3 336 1.6 4.8 0.00 0.00 0.00 64 1012.2
20260505072828 3 327 3.2 9.7 0.00 0.00 0.00 66 1012.2
20260505072324 3 343 0.0 0.0 0.00 0.00 0.00 67 1012.2
20260505071820 3 312 8.0 11.3 0.00 0.00 0.00 67 1012.3
20260505071317 3 350 4.8 8.0 0.00 0.00 0.00 67 1012.2
20260505070815 3 340 14.5 20.9 0.00 0.00 0.00 67 1012.4
20260505070311 3 315 0.0 0.0 0.00 0.00 0.00 68 1012.5
20260505065806 3 337 8.0 11.3 0.00 0.00 0.00 69 1012.5
20260505065304 3 326 1.6 3.2 0.00 0.00 0.00 70 1012.5
20260505064801 3 353 0.0 0.0 0.00 0.00 0.00 73 1012.7
20260505064258 3 355 1.6 4.8 0.00 0.00 0.00 75 1012.7
20260505063755 3 351 0.0 3.2 0.00 0.00 0.00 75 1012.4
20260505063252 3 358 0.0 0.0 0.00 0.00 0.00 75 1012.4
20260505062748 3 354 8.0 11.3 0.00 0.00 0.00 74 1012.5
20260505062241 3 355 6.4 11.3 0.00 0.00 0.00 70 1012.8
20260505061737 4 347 19.3 24.1 0.00 0.00 0.00 66 1012.4
20260505061235 4 355 11.3 14.5 0.00 0.00 0.00 66 1012.3
20260505060732 4 347 17.7 24.1 0.00 0.00 0.00 66 1012.5
20260505060229 4 326 22.5 27.4 0.00 0.00 0.00 66 1012.2
20260505055724 4 347 30.6 33.8 0.00 0.00 0.00 66 1012.2
20260505055221 4 355 8.0 12.9 0.00 0.00 0.00 67 1012.2
20260505054718 5 332 12.9 16.1 0.00 0.00 0.00 66 1012.3
20260505054216 5 343 20.9 27.4 0.00 0.00 0.00 66 1011.7
20260505053714 5 343 12.9 20.9 0.00 0.00 0.00 66 1012.0
20260505053210 5 334 3.2 4.8 0.00 0.00 0.00 67 1012.1
20260505052707 5 330 16.1 20.9 0.00 0.00 0.00 67 1012.1
20260505052204 5 325 9.7 17.7 0.00 0.00 0.00 68 1012.1
20260505051701 5 313 6.4 11.3 0.00 0.00 0.00 68 1012.0
20260505051159 5 353 19.3 22.5 0.00 0.00 0.00 67 1012.0
20260505050657 5 340 4.8 8.0 0.00 0.00 0.00 68 1011.6
20260505050155 5 349 17.7 22.5 0.00 0.00 0.00 68 1011.5
20260505041625 5 342 11.3 14.5 0.00 0.00 0.00 65 1011.1
20260505041122 5 348 14.5 16.1 0.00 0.00 0.00 64 1011.4
20260505040619 5 338 8.0 9.7 0.00 0.00 0.00 65 1011.1
20260505040116 5 338 20.9 38.6 0.00 0.00 0.00 65 1011.4
20260505035613 5 342 11.3 16.1 0.00 0.00 0.00 65 1011.1
20260505035109 5 335 6.4 11.3 0.00 0.00 0.00 64 1011.1
20260505034606 5 352 11.3 14.5 0.00 0.00 0.00 64 1010.9
20260505034102 5 344 11.3 14.5 0.00 0.00 0.00 64 1011.0
20260505033559 5 339 14.5 20.9 0.00 0.00 0.00 65 1010.9
20260505033058 5 327 6.4 11.3 0.00 0.00 0.00 65 1010.7
20260505032555 5 355 8.0 14.5 0.00 0.00 0.00 65 1010.8
20260505032051 5 304 6.4 14.5 0.00 0.00 0.00 65 1010.6
20260505031548 5 341 8.0 12.9 0.00 0.00 0.00 65 1010.6
20260505031045 5 339 1.6 3.2 0.00 0.00 0.00 66 1010.6
20260505030542 5 343 0.0 3.2 0.00 0.00 0.00 65 1010.8
20260505030038 5 344 1.6 3.2 0.00 0.00 0.00 65 1010.4
20260505025533 5 329 11.3 14.5 0.00 0.00 0.00 65 1010.6
20260505025033 5 327 8.0 11.3 0.00 0.00 0.00 64 1010.3
20260505024529 5 339 0.0 3.2 0.00 0.00 0.00 65 1010.6
20260505024026 5 332 1.6 3.2 0.00 0.00 0.00 65 1010.3
20260505023523 5 323 8.0 11.3 0.00 0.00 0.00 65 1010.4
20260505023021 5 332 1.6 8.0 0.00 0.00 0.00 65 1010.2
20260505022519 5 337 4.8 8.0 0.00 0.00 0.00 65 1010.4
20260505022016 5 326 8.0 11.3 0.00 0.00 0.00 64 1010.4
20260505021513 6 318 0.0 0.0 0.00 0.00 0.00 65 1010.6
20260505021009 5 340 1.6 4.8 0.00 0.00 0.00 66 1010.3
20260505020508 6 337 0.0 0.0 0.00 0.00 0.00 65 1010.6
20260505020006 6 312 1.6 8.0 0.00 0.00 0.00 65 1010.2
20260505015503 6 338 0.0 1.6 0.00 0.00 0.00 65 1010.0
20260505015000 6 325 0.0 0.0 0.00 0.00 0.00 64 1010.2
20260505014457 6 330 4.8 9.7 0.00 0.00 0.00 64 1010.2
20260505013954 6 333 1.6 3.2 0.00 0.00 0.00 64 1010.0
20260505013451 6 351 1.6 8.0 0.00 0.00 0.00 64 1010.0
20260505012948 6 341 4.8 14.5 0.00 0.00 0.00 63 1010.2
20260505012447 6 18 1.6 4.8 0.00 0.00 0.00 64 1010.2
20260505011943 6 333 6.4 9.7 0.00 0.00 0.00 64 1010.3
20260505011439 6 338 8.0 11.3 0.00 0.00 0.00 65 1010.3
20260505010936 6 319 3.2 4.8 0.00 0.00 0.00 64 1010.2
20260505010431 6 332 6.4 8.0 0.00 0.00 0.00 64 1010.3
20260505005928 6 20 3.2 8.0 0.00 0.00 0.00 63 1010.1
20260505005425 6 344 8.0 9.7 0.00 0.00 0.00 63 1010.6
20260505004922 6 331 6.4 8.0 0.00 0.00 0.00 64 1010.3
20260505004418 6 347 9.7 12.9 0.00 0.00 0.00 63 1010.1
20260505003916 6 325 14.5 20.9 0.00 0.00 0.00 62 1010.3
20260505003413 6 330 17.7 22.5 0.00 0.00 0.00 63 1010.3
20260505002909 6 340 4.8 8.0 0.00 0.00 0.00 63 1010.2
20260505002406 6 328 6.4 12.9 0.00 0.00 0.00 62 1010.2
20260505001904 7 341 8.0 12.9 0.00 0.00 0.00 63 1010.2
20260505001401 6 343 14.5 16.1 0.00 0.00 0.00 62 1010.3
20260505000858 7 293 14.5 20.9 0.00 0.00 0.00 62 1010.2
20260505000358 7 333 16.1 20.9 0.00 0.00 0.00 62 1010.3
20260504235852 7 342 14.5 16.1 0.00 0.00 0.00 62 1010.3
20260504235349 7 2 14.5 20.9 0.00 0.00 0.00 61 1010.2
20260504234846 7 345 17.7 20.9 0.00 0.00 0.00 61 1010.4
20260504234344 7 8 8.0 11.3 0.00 0.00 0.00 61 1010.2
20260504233840 7 336 11.3 14.5 0.00 0.00 0.00 60 1010.2
20260504233336 7 328 17.7 24.1 0.00 0.00 0.00 60 1010.1
20260504232833 7 331 17.7 22.5 0.00 0.00 0.00 60 1010.2
20260504232330 7 333 12.9 16.1 0.00 0.00 0.00 60 1009.8
20260504231826 7 336 11.3 12.9 0.00 0.00 0.00 60 1009.9
20260504231323 7 339 12.9 16.1 0.00 0.00 0.00 60 1009.8
20260504230819 7 4 17.7 24.1 0.00 0.00 0.00 61 1010.0
20260504230317 7 341 16.1 16.1 0.00 0.00 0.00 61 1010.1
20260504225816 7 326 9.7 12.9 0.00 0.00 0.00 61 1010.0
20260504225312 7 352 24.1 29.0 0.00 0.00 0.00 60 1009.8
20260504224809 7 7 14.5 17.7 0.00 0.00 0.00 62 1009.9
20260504224306 7 331 19.3 27.4 0.00 0.00 0.00 62 1010.0
20260504223802 7 359 8.0 16.1 0.00 0.00 0.00 62 1010.2
20260504223258 7 340 9.7 11.3 0.00 0.00 0.00 64 1010.1
20260504222755 7 346 12.9 17.7 0.00 0.00 0.00 62 1010.2
20260504222252 7 327 11.3 14.5 0.00 0.00 0.00 62 1010.0
20260504221750 7 353 16.1 22.5 0.00 0.00 0.00 61 1010.1
20260504221247 7 11 20.9 27.4 0.00 0.00 0.00 60 1010.1
20260504220743 8 341 14.5 20.9 0.00 0.00 0.00 60 1009.9
20260504220240 7 343 12.9 17.7 0.00 0.00 0.00 60 1010.2
20260504215738 7 359 19.3 24.1 0.00 0.00 0.00 61 1010.3
20260504215234 7 248 9.7 14.5 0.00 0.00 0.00 62 1010.3
20260504214730 8 5 6.4 11.3 0.00 0.00 0.00 62 1010.6
20260504214227 7 299 11.3 14.5 0.00 0.00 0.00 62 1010.6
20260504213723 7 4 8.0 11.3 0.00 0.00 0.00 62 1010.6
20260504213220 7 2 14.5 16.1 0.00 0.00 0.00 61 1010.6
20260504212717 7 5 6.4 12.9 0.00 0.00 0.00 64 1010.4
20260504212214 7 350 17.7 22.5 0.00 0.00 0.00 62 1010.6
20260504211711 7 21 11.3 16.1 0.00 0.00 0.00 61 1010.6
20260504211207 7 335 19.3 24.1 0.00 0.00 0.00 61 1010.7
20260504210705 7 354 16.1 17.7 0.00 0.00 0.00 61 1010.6
20260504210201 7 0 19.3 25.7 0.00 0.00 0.00 61 1010.9
20260504205658 7 7 12.9 16.1 0.00 0.00 0.00 62 1010.9
20260504205155 7 329 17.7 22.5 0.00 0.00 0.00 62 1011.0
20260504204654 6 4 16.1 17.7 0.00 0.00 0.00 62 1011.0
20260504204153 7 357 12.9 20.9 0.00 0.00 0.00 61 1011.3
20260504203651 7 344 11.3 14.5 0.00 0.00 0.00 62 1011.4
20260504203149 7 320 11.3 16.1 0.00 0.00 0.00 62 1010.8
20260504202648 7 350 12.9 14.5 0.00 0.00 0.00 63 1011.1
20260504202146 7 7 17.7 24.1 0.00 0.00 0.00 62 1011.0
20260504201643 7 347 11.3 16.1 0.00 0.00 0.00 62 1011.3
20260504201141 7 353 19.3 24.1 0.00 0.00 0.00 62 1011.0
20260504200637 7 335 19.3 24.1 0.00 0.00 0.00 61 1011.3
20260504200134 6 344 11.3 16.1 0.00 0.00 0.00 63 1011.0
20260504195630 7 329 19.3 24.1 0.00 0.00 0.00 64 1010.9
20260504195126 7 345 14.5 17.7 0.00 0.00 0.00 64 1010.9
20260504194623 7 359 24.1 32.2 0.00 0.00 0.00 64 1011.1
20260504194119 7 349 16.1 27.4 0.00 0.00 0.00 65 1011.1
20260504193615 6 5 20.9 24.1 0.00 0.00 0.00 64 1011.1
20260504193114 7 348 20.9 29.0 0.00 0.00 0.00 64 1011.3
20260504192612 7 18 14.5 17.7 0.00 0.00 0.00 65 1011.1
20260504192110 7 348 11.3 16.1 0.00 0.00 0.00 63 1011.1
20260504191608 7 12 19.3 25.7 0.00 0.00 0.00 63 1010.8
20260504191104 7 8 4.8 9.7 0.00 0.00 0.00 65 1010.9
20260504190600 7 4 25.7 33.8 0.00 0.00 0.00 65 1011.0
20260504190056 7 352 20.9 27.4 0.00 0.00 0.00 65 1010.6
20260504185553 7 339 9.7 12.9 0.00 0.00 0.00 65 1011.0
20260504185050 7 346 19.3 27.4 0.00 0.00 0.00 65 1010.8
20260504184545 7 30 6.4 9.7 0.00 0.00 0.00 65 1011.1
20260504184041 7 0 16.1 20.9 0.00 0.00 0.00 65 1010.7
20260504183538 7 348 9.7 14.5 0.00 0.00 0.00 65 1011.0
20260504183036 7 328 12.9 16.1 0.00 0.00 0.00 66 1011.1
20260504182533 6 4 11.3 16.1 0.00 0.00 0.00 67 1011.4
20260504182030 6 352 1.6 8.0 0.00 0.00 0.00 67 1011.3
20260504181527 6 347 17.7 20.9 0.00 0.00 0.00 67 1011.4
20260504181026 6 326 16.1 22.5 0.00 0.00 0.00 68 1011.4
20260504180524 6 326 4.8 8.0 0.00 0.00 0.00 69 1011.5
20260504180023 6 359 19.3 25.7 0.00 0.00 0.00 67 1011.5
20260504175519 6 23 9.7 14.5 0.00 0.00 0.00 68 1011.6
20260504175016 6 326 22.5 32.2 0.00 0.00 0.00 69 1011.7
20260504174514 5 347 16.1 17.7 0.00 0.00 0.00 71 1011.5
20260504174011 5 348 16.1 22.5 0.00 0.00 0.00 71 1011.6
20260504173508 6 336 8.0 11.3 0.00 0.00 0.00 71 1011.4
20260504173005 6 351 14.5 17.7 0.00 0.00 0.00 71 1011.8
20260504172501 5 353 8.0 14.5 0.00 0.00 0.00 72 1011.6
20260504171957 6 346 9.7 17.7 0.00 0.00 0.00 72 1011.7
20260504171454 6 3 12.9 16.1 0.00 0.00 0.00 71 1011.7
20260504170951 6 355 1.6 4.8 0.00 0.00 0.00 70 1011.6
20260504170447 6 20 8.0 11.3 0.00 0.00 0.00 70 1011.6
20260504160407 5 351 14.5 20.9 0.00 0.00 0.00 72 1011.7